Location: Dackenheim
(49.5215°N, 8.1854°E)
Time: 12:20:58
(UTC+00:00)

BlueWalker 3 - Pass Details

Date: 24 January 2026
Orbit: 451 x 460 km, 53.2° (Epoch: 17 February)

Event Time Altitude Azimuth Distance (km) Brightness Sun altitude
Rises 18:47:40 0° 257° (WSW) 2,453 6.7 -25.4°
Reaches altitude 10° 18:49:49 10° 260° (W) 1,582 5.5 -25.7°
Enters shadow 18:52:01 34° 274° (W) 761 3.3 -26.1°
